Location: Les Coudrans
(46.1056°N, 1.1158°W)
Time: 21:26:01
(UTC+00:00)

USA 305 - Pass Details

Date: 03 March 2021
Orbit: 567 x 574 km, 54.0° (Epoch: 22 April)

Event Time Altitude Azimuth Distance (km) Brightness Sun altitude
Rises 19:42:53 0° 292° (WNW) 2,781 8.0 -19.6°
Reaches altitude 10° 19:45:23 10° 304° (WNW) 1,881 6.5 -20.0°
Maximum altitude 19:49:07 28° 4° (N) 1,083 4.3 -20.7°
Enters shadow 19:50:10 25° 30° (NNE) 1,167 4.3 -20.9°
